Humidity-temperature Sensor

Selected Measurement Type: Air Temperature

 
Air Temperature [°C]     6 entries per hour
Showing data from 10/1/2020 (23:00:00 Z) to 9/24/2020 (00:01:00 Z)
Previous Next [ Day | 3-Days | 7-Days ]
First Last
Prev [ Day | 3-Days | 7-Days ] Next
First Last

Start Time:     :
End Time:     :     
Time (in GMT) :00 :50 :40 :30 :20 :10
Previous Next [ Day | 3-Days | 7-Days ]
First Last
Prev [ Day | 3-Days | 7-Days ] Next
First Last


123 => good data
MM => data is determined as missing
-- => data not received/configured
Back to Top Back to Top
10/1/2020 23:00 to 22:10 20.74 20.82 20.73 20.68 20.74 20.80
10/1/2020 22:00 to 21:10 20.74 20.75 20.57 20.61 20.71 20.75
10/1/2020 21:00 to 20:10 20.85 20.74 20.72 20.56 20.27 20.83
10/1/2020 20:00 to 19:10 20.84 20.81 20.72 20.64 20.77 20.86
10/1/2020 19:00 to 18:10 20.84 20.80 20.63 20.33 20.29 20.77
10/1/2020 18:00 to 17:10 20.58 20.73 20.85 20.52 20.58 20.72
10/1/2020 17:00 to 16:10 20.66 20.38 20.04 19.73 19.90 20.49
10/1/2020 16:00 to 15:10 20.80 20.80 20.78 20.66 20.84 20.77
10/1/2020 15:00 to 14:10 20.69 20.86 20.37 20.26 20.58 20.91
10/1/2020 14:00 to 13:10 20.81 20.58 20.67 20.69 20.67 20.44
10/1/2020 13:00 to 12:10 20.38 20.23 20.28 20.72 20.53 20.59
10/1/2020 12:00 to 11:10 20.62 20.62 20.67 20.66 20.51 20.51
10/1/2020 11:00 to 10:10 20.41 20.17 20.26 20.58 20.57 20.50
10/1/2020 10:00 to 9:10 20.79 20.83 20.81 20.81 20.82 20.79
10/1/2020 09:00 to 8:10 20.91 20.90 20.87 20.69 20.86 20.89
10/1/2020 08:00 to 7:10 20.88 20.96 20.97 20.88 20.90 20.86
10/1/2020 07:00 to 6:10 21.00 20.93 20.94 21.00 21.01 21.11
10/1/2020 06:00 to 5:10 21.01 21.08 21.08 21.14 21.09 21.14
10/1/2020 05:00 to 4:10 21.08 21.17 21.16 21.24 21.22 21.18
10/1/2020 04:00 to 3:10 21.25 21.20 21.23 21.33 21.28 21.21
10/1/2020 03:00 to 2:10 21.25 21.24 21.15 21.28 21.25 21.29
10/1/2020 02:00 to 1:10 21.28 21.27 21.28 21.23 21.32 21.14
10/1/2020 01:00 to 0:10 21.28 21.25 21.21 21.25 21.29 21.15
10/1/2020 00:00 to 23:10 21.19 21.24 21.23 21.19 21.20 21.35
9/30/2020 23:00 to 22:10 21.17 21.33 21.24 21.19 21.30 21.27
9/30/2020 22:00 to 21:10 21.22 21.30 21.26 21.36 21.18 21.39
9/30/2020 21:00 to 20:10 21.23 21.25 21.20 21.24 21.19 21.16
9/30/2020 20:00 to 19:10 21.23 21.11 21.08 21.20 21.13 21.21
9/30/2020 19:00 to 18:10 21.40 21.14 21.16 21.34 21.26 21.09
9/30/2020 18:00 to 17:10 21.19 21.17 21.13 21.16 21.18 21.11
9/30/2020 17:00 to 16:10 21.05 21.07 21.06 21.10 21.16 21.06
9/30/2020 16:00 to 15:10 21.03 21.10 21.13 21.16 21.17 21.12
9/30/2020 15:00 to 14:10 21.14 21.02 21.17 21.06 21.06 21.04
9/30/2020 14:00 to 13:10 21.07 21.03 21.05 20.97 21.04 20.93
9/30/2020 13:00 to 12:10 21.00 20.97 20.89 20.89 20.90 20.87
9/30/2020 12:00 to 11:10 20.92 21.07 21.10 20.97 20.97 20.99
9/30/2020 11:00 to 10:10 21.02 21.03 20.94 20.87 20.83 20.94
9/30/2020 10:00 to 9:10 21.07 20.97 20.96 21.06 20.99 20.94
9/30/2020 09:00 to 8:10 20.89 20.92 20.98 21.07 20.96 21.00
9/30/2020 08:00 to 7:10 21.06 20.95 21.05 21.01 21.08 21.03
9/30/2020 07:00 to 6:10 21.07 21.01 21.04 20.94 20.93 20.83
9/30/2020 06:00 to 5:10 20.90 20.82 20.76 20.88 20.89 20.99
9/30/2020 05:00 to 4:10 20.94 20.89 20.88 20.85 20.96 20.83
9/30/2020 04:00 to 3:10 20.86 20.69 20.87 20.84 20.88 20.84
9/30/2020 03:00 to 2:10 20.90 20.84 20.78 20.85 20.91 20.84
9/30/2020 02:00 to 1:10 20.83 20.81 20.79 20.80 20.75 20.90
9/30/2020 01:00 to 0:10 20.85 20.75 20.69 20.76 20.64 20.58
9/30/2020 00:00 to 23:10 20.65 20.73 20.82 20.73 20.72 20.73
9/29/2020 23:00 to 22:10 20.77 20.88 20.74 20.88 21.01 20.81
9/29/2020 22:00 to 21:10 20.79 20.75 20.77 20.49 20.20 20.64
9/29/2020 21:00 to 20:10 20.65 20.81 20.70 20.79 20.60 20.80
9/29/2020 20:00 to 19:10 20.63 20.54 20.14 20.61 20.66 20.51
9/29/2020 19:00 to 18:10 20.42 20.37 20.53 20.54 20.61 20.51
9/29/2020 18:00 to 17:10 20.46 20.48 20.56 20.57 20.39 20.64
9/29/2020 17:00 to 16:10 20.70 20.44 20.33 20.51 20.34 20.14
9/29/2020 16:00 to 15:10 20.28 19.95 20.20 19.99 19.94 20.08
9/29/2020 15:00 to 14:10 20.07 19.94 19.74 19.68 19.74 19.77
9/29/2020 14:00 to 13:10 19.48 19.61 19.81 19.81 19.84 19.86
9/29/2020 13:00 to 12:10 19.73 19.63 19.53 19.74 19.60 19.64
9/29/2020 12:00 to 11:10 19.65 19.58 19.67 19.55 19.43 19.46
9/29/2020 11:00 to 10:10 19.78 19.47 19.57 19.76 19.64 19.35
9/29/2020 10:00 to 9:10 19.02 19.07 19.28 19.40 19.55 19.44
9/29/2020 09:00 to 8:10 19.43 19.51 19.54 19.77 19.72 19.72
9/29/2020 08:00 to 7:10 19.94 19.66 19.81 19.53 19.57 19.53
9/29/2020 07:00 to 6:10 19.80 19.85 19.49 19.73 19.64 19.84
9/29/2020 06:00 to 5:10 19.95 20.01 20.10 19.98 19.95 19.94
9/29/2020 05:00 to 4:10 19.80 19.93 19.89 19.85 19.66 19.75
9/29/2020 04:00 to 3:10 19.73 19.85 19.82 19.81 19.91 19.90
9/29/2020 03:00 to 2:10 19.88 19.71 19.61 19.64 19.62 19.53
9/29/2020 02:00 to 1:10 19.39 19.40 19.33 19.18 19.07 19.07
9/29/2020 01:00 to 0:10 19.07 19.10 19.40 19.39 19.46 19.37
9/29/2020 00:00 to 23:10 19.51 19.66 19.51 19.57 19.59 19.53
9/28/2020 23:00 to 22:10 19.52 19.50 19.50 19.37 19.46 19.37
9/28/2020 22:00 to 21:10 19.36 19.38 19.36 19.35 19.34 19.30
9/28/2020 21:00 to 20:10 19.27 19.35 19.29 19.12 19.09 19.08
9/28/2020 20:00 to 19:10 19.06 19.07 19.12 19.20 19.22 19.15
9/28/2020 19:00 to 18:10 19.26 19.10 19.03 19.07 18.96 18.87
9/28/2020 18:00 to 17:10 18.79 18.83 18.91 18.82 18.85 18.90
9/28/2020 17:00 to 16:10 19.03 18.96 18.89 18.96 18.95 19.06
9/28/2020 16:00 to 15:10 19.04 19.11 19.21 19.11 19.10 19.25
9/28/2020 15:00 to 14:10 19.19 19.24 19.31 19.30 19.44 19.46
9/28/2020 14:00 to 13:10 19.58 19.68 19.54 19.49 19.56 19.47
9/28/2020 13:00 to 12:10 19.29 19.14 19.34 19.29 19.25 19.14
9/28/2020 12:00 to 11:10 19.23 19.19 19.14 19.15 19.14 19.12
9/28/2020 11:00 to 10:10 19.09 19.17 19.15 19.09 19.08 19.00
9/28/2020 10:00 to 9:10 19.07 18.98 19.04 19.04 19.06 19.02
9/28/2020 09:00 to 8:10 19.01 19.04 19.06 19.08 19.13 19.13
9/28/2020 08:00 to 7:10 19.22 19.11 19.27 19.25 19.29 19.30
9/28/2020 07:00 to 6:10 19.35 19.36 19.39 19.37 19.32 19.39
9/28/2020 06:00 to 5:10 19.37 19.34 19.39 19.39 19.35 19.36
9/28/2020 05:00 to 4:10 19.38 19.46 19.38 19.44 19.31 19.56
9/28/2020 04:00 to 3:10 19.50 19.49 19.46 19.51 19.57 19.53
9/28/2020 03:00 to 2:10 19.62 19.67 19.64 19.61 19.63 19.56
9/28/2020 02:00 to 1:10 19.57 19.45 19.45 19.36 19.32 19.35
9/28/2020 01:00 to 0:10 19.38 19.37 19.37 19.31 19.39 19.32
9/28/2020 00:00 to 23:10 19.30 19.29 19.28 19.32 19.29 19.36
9/27/2020 23:00 to 22:10 19.29 19.40 19.46 19.42 19.51 19.47
9/27/2020 22:00 to 21:10 19.51 19.56 19.50 19.56 19.59 19.60
9/27/2020 21:00 to 20:10 19.52 19.54 19.53 19.47 19.46 19.44
9/27/2020 20:00 to 19:10 19.41 19.38 19.35 19.35 19.32 19.36
9/27/2020 19:00 to 18:10 19.25 19.28 19.27 19.20 19.26 19.20
9/27/2020 18:00 to 17:10 19.20 19.16 19.23 19.31 19.27 19.25
9/27/2020 17:00 to 16:10 19.30 19.27 19.22 19.24 19.19 19.18
9/27/2020 16:00 to 15:10 19.18 19.17 19.17 19.14 19.08 19.13
9/27/2020 15:00 to 14:10 19.09 19.04 19.02 19.03 19.00 18.98
9/27/2020 14:00 to 13:10 19.01 19.03 19.03 19.07 19.03 19.03
9/27/2020 13:00 to 12:10 18.98 18.92 18.81 18.78 18.71 18.71
9/27/2020 12:00 to 11:10 18.67 18.69 18.68 18.67 18.70 18.74
9/27/2020 11:00 to 10:10 18.70 18.68 18.69 18.64 18.69 18.67
9/27/2020 10:00 to 9:10 18.67 18.67 18.65 18.68 18.66 18.70
9/27/2020 09:00 to 8:10 18.75 18.76 18.72 18.74 18.75 18.74
9/27/2020 08:00 to 7:10 18.75 18.79 18.74 18.76 18.71 18.75
9/27/2020 07:00 to 6:10 18.76 18.80 18.82 18.84 18.85 18.86
9/27/2020 06:00 to 5:10 18.91 18.91 18.92 18.96 18.97 18.97
9/27/2020 05:00 to 4:10 19.01 19.02 19.06 19.05 19.05 19.03
9/27/2020 04:00 to 3:10 19.03 18.99 18.99 18.99 18.99 19.01
9/27/2020 03:00 to 2:10 19.03 19.05 19.05 19.06 19.04 19.08
9/27/2020 02:00 to 1:10 19.11 19.09 19.13 19.10 19.15 19.22
9/27/2020 01:00 to 0:10 19.16 19.18 19.25 19.33 19.25 19.23
9/27/2020 00:00 to 23:10 19.23 19.19 19.30 19.50 19.54 19.54
9/26/2020 23:00 to 22:10 19.61 19.55 19.58 19.47 19.48 19.42
9/26/2020 22:00 to 21:10 19.44 19.40 19.38 19.31 19.32 19.31
9/26/2020 21:00 to 20:10 19.36 19.32 19.35 19.44 19.40 19.36
9/26/2020 20:00 to 19:10 19.39 19.41 19.39 19.40 19.46 19.40
9/26/2020 19:00 to 18:10 19.40 19.43 19.36 19.38 19.24 19.22
9/26/2020 18:00 to 17:10 19.15 19.22 19.22 19.19 19.20 19.17
9/26/2020 17:00 to 16:10 19.24 19.30 19.38 19.31 19.29 19.26
9/26/2020 16:00 to 15:10 19.25 19.26 19.30 19.21 19.15 19.07
9/26/2020 15:00 to 14:10 19.07 19.17 19.17 19.17 19.19 19.08
9/26/2020 14:00 to 13:10 19.10 19.16 19.14 19.07 19.09 19.03
9/26/2020 13:00 to 12:10 19.07 19.11 19.06 19.07 19.01 19.09
9/26/2020 12:00 to 11:10 19.06 19.03 19.10 18.91 18.91 18.95
9/26/2020 11:00 to 10:10 18.99 18.98 18.91 18.84 18.85 18.85
9/26/2020 10:00 to 9:10 18.81 18.80 18.84 18.81 18.84 18.81
9/26/2020 09:00 to 8:10 18.79 18.85 18.89 18.88 18.90 18.93
9/26/2020 08:00 to 7:10 18.94 19.00 19.01 19.02 19.05 19.14
9/26/2020 07:00 to 6:10 19.10 19.11 19.08 19.14 19.24 19.17
9/26/2020 06:00 to 5:10 19.18 19.18 19.19 19.19 19.17 19.21
9/26/2020 05:00 to 4:10 19.21 19.24 19.26 19.31 19.25 19.36
9/26/2020 04:00 to 3:10 19.29 19.26 19.29 19.37 19.41 19.42
9/26/2020 03:00 to 2:10 19.43 19.40 19.46 19.44 19.43 19.45
9/26/2020 02:00 to 1:10 19.53 19.49 19.44 19.45 19.51 19.45
9/26/2020 01:00 to 0:10 19.47 19.42 19.45 19.45 19.49 19.42
9/26/2020 00:00 to 23:10 19.44 19.49 19.64 19.85 19.83 19.89
9/25/2020 23:00 to 22:10 19.91 19.92 19.94 19.80 19.70 19.69
9/25/2020 22:00 to 21:10 19.77 19.76 19.75 19.73 19.81 19.80
9/25/2020 21:00 to 20:10 19.75 19.77 19.75 19.70 19.71 19.82
9/25/2020 20:00 to 19:10 19.79 19.74 19.74 19.67 19.60 19.68
9/25/2020 19:00 to 18:10 19.57 19.61 19.50 19.56 19.53 19.53
9/25/2020 18:00 to 17:10 19.52 19.48 19.53 19.58 19.58 19.48
9/25/2020 17:00 to 16:10 19.41 19.32 19.28 19.26 19.28 19.27
9/25/2020 16:00 to 15:10 19.29 19.32 19.30 19.25 19.20 19.11
9/25/2020 15:00 to 14:10 19.06 19.02 19.04 19.04 18.97 18.96
9/25/2020 14:00 to 13:10 18.91 18.87 18.88 18.83 18.92 18.85
9/25/2020 13:00 to 12:10 18.82 18.82 18.75 18.86 18.80 18.76
9/25/2020 12:00 to 11:10 18.82 18.79 18.77 18.84 18.72 18.72
9/25/2020 11:00 to 10:10 18.75 18.75 18.77 18.70 18.66 18.76
9/25/2020 10:00 to 9:10 18.75 18.73 18.71 18.72 18.71 18.68
9/25/2020 09:00 to 8:10 18.75 18.73 18.71 18.67 18.71 18.73
9/25/2020 08:00 to 7:10 18.77 18.75 18.80 18.80 18.79 18.85
9/25/2020 07:00 to 6:10 18.88 18.87 18.88 18.93 19.00 18.98
9/25/2020 06:00 to 5:10 18.99 19.00 18.94 19.02 19.00 19.07
9/25/2020 05:00 to 4:10 18.99 18.99 19.00 19.01 18.95 18.98
9/25/2020 04:00 to 3:10 18.99 19.00 18.95 18.94 19.04 18.99
9/25/2020 03:00 to 2:10 18.90 18.94 18.84 18.93 18.88 18.99
9/25/2020 02:00 to 1:10 18.92 18.96 19.01 18.99 19.01 19.01
9/25/2020 01:00 to 0:10 19.06 19.07 19.04 19.00 19.03 19.06
9/25/2020 00:00 to 23:10 19.04 19.16 19.17 19.13 19.08 19.16
9/24/2020 23:00 to 22:10 19.22 19.18 19.21 19.16 19.20 19.10
9/24/2020 22:00 to 21:10 19.12 19.10 19.05 19.01 19.04 19.00
9/24/2020 21:00 to 20:10 18.97 18.92 18.92 18.86 18.81 18.79
9/24/2020 20:00 to 19:10 18.80 18.86 18.89 18.77 18.68 18.53
9/24/2020 19:00 to 18:10 18.85 18.88 18.86 18.80 18.81 18.78
9/24/2020 18:00 to 17:10 18.59 18.42 18.44 18.34 18.49 18.30
9/24/2020 17:00 to 16:10 18.43 18.49 18.55 18.55 18.55 18.56
9/24/2020 16:00 to 15:10 18.62 18.54 18.53 18.50 18.56 18.55
9/24/2020 15:00 to 14:10 18.65 18.54 18.56 18.48 18.37 18.40
9/24/2020 14:00 to 13:10 18.35 18.34 18.30 18.47 18.31 18.20
9/24/2020 13:00 to 12:10 18.29 18.27 18.54 18.57 18.53 18.60
9/24/2020 12:00 to 11:10 18.48 18.51 18.64 18.81 18.72 18.67
9/24/2020 11:00 to 10:10 18.68 18.82 18.73 18.75 18.63 18.71
9/24/2020 10:00 to 9:10 18.44 18.49 18.52 18.60 18.73 18.74
9/24/2020 09:00 to 8:10 18.87 18.98 18.95 19.06 19.03 19.06
9/24/2020 08:00 to 7:10 19.00 19.06 19.02 19.01 19.05 19.05
9/24/2020 07:00 to 6:10 19.03 19.09 19.04 19.05 19.19 19.14
9/24/2020 06:00 to 5:10 19.16 19.26 19.19 19.21 19.18 19.21
9/24/2020 05:00 to 4:10 19.20 19.15 19.12 19.17 19.16 19.10
9/24/2020 04:00 to 3:10 19.15 19.15 19.27 19.19 19.25 19.20
9/24/2020 03:00 to 2:10 19.08 19.07 19.13 19.22 19.35 19.27
9/24/2020 02:00 to 1:10 19.30 19.33 19.29 19.27 19.29 19.18
9/24/2020 01:00 to 0:10 19.24 19.20 19.33 19.24 19.19 19.24